Year,Month,Day,Hour,Minute,Value (Times are PST for temperature in C)
2020,05,11,08,00,18.10
2020,05,11,08,01,18.20
2020,05,11,08,02,18.20
2020,05,11,08,03,18.20
2020,05,11,08,04,18.20
2020,05,11,08,05,18.20
2020,05,11,08,06,18.20
2020,05,11,08,07,18.20
2020,05,11,08,08,18.20
2020,05,11,08,09,18.30
2020,05,11,08,10,18.30
2020,05,11,08,11,18.40
2020,05,11,08,12,18.40
2020,05,11,08,13,18.50
2020,05,11,08,14,18.50
2020,05,11,08,15,18.60
2020,05,11,08,16,18.60
2020,05,11,08,17,18.70
2020,05,11,08,18,18.70
2020,05,11,08,19,18.70
2020,05,11,08,20,18.70
2020,05,11,08,21,18.60
2020,05,11,08,22,18.60
2020,05,11,08,23,18.60
2020,05,11,08,24,18.60
2020,05,11,08,25,18.50
2020,05,11,08,26,18.50
2020,05,11,08,27,18.50
2020,05,11,08,28,18.40
2020,05,11,08,29,18.40
2020,05,11,08,30,18.40
2020,05,11,08,31,18.40
2020,05,11,08,32,18.40
2020,05,11,08,33,18.40
2020,05,11,08,34,18.40
2020,05,11,08,35,18.40
2020,05,11,08,36,18.40
2020,05,11,08,37,18.40
2020,05,11,08,38,18.40
2020,05,11,08,39,18.40
2020,05,11,08,40,18.40
2020,05,11,08,41,18.50
2020,05,11,08,42,18.50
2020,05,11,08,43,18.60
2020,05,11,08,44,18.60
2020,05,11,08,45,18.70
2020,05,11,08,46,18.70
2020,05,11,08,47,18.70
2020,05,11,08,48,18.70
2020,05,11,08,49,18.80
2020,05,11,08,50,18.80
2020,05,11,08,51,18.80
2020,05,11,08,52,18.80
2020,05,11,08,53,18.90
2020,05,11,08,54,18.90
2020,05,11,08,55,18.90
2020,05,11,08,56,18.90
2020,05,11,08,57,19.00
2020,05,11,08,58,19.10
2020,05,11,08,59,19.10
2020,05,11,09,00,19.10
2020,05,11,09,01,19.10
2020,05,11,09,02,19.10
2020,05,11,09,03,19.10
2020,05,11,09,04,19.10
2020,05,11,09,05,19.10
2020,05,11,09,06,19.10
2020,05,11,09,07,19.10
2020,05,11,09,08,19.20
2020,05,11,09,09,19.20
2020,05,11,09,10,19.20
2020,05,11,09,11,19.20
2020,05,11,09,12,19.20
2020,05,11,09,13,19.20
2020,05,11,09,14,19.20
2020,05,11,09,15,19.20
2020,05,11,09,16,19.20
2020,05,11,09,17,19.10
2020,05,11,09,18,19.10
2020,05,11,09,19,19.10
2020,05,11,09,20,19.20
2020,05,11,09,21,19.20
2020,05,11,09,22,19.20
2020,05,11,09,23,19.30
2020,05,11,09,24,19.30
2020,05,11,09,25,19.30
2020,05,11,09,26,19.40
2020,05,11,09,27,19.40
2020,05,11,09,28,19.50
2020,05,11,09,29,19.60
2020,05,11,09,30,19.60
2020,05,11,09,31,19.70
2020,05,11,09,32,19.70
2020,05,11,09,33,19.70
2020,05,11,09,34,19.70
2020,05,11,09,35,19.70
2020,05,11,09,36,19.60
2020,05,11,09,37,19.60
2020,05,11,09,38,19.60
2020,05,11,09,39,19.60
2020,05,11,09,40,19.60
2020,05,11,09,41,19.60
2020,05,11,09,42,19.70
2020,05,11,09,43,19.70
2020,05,11,09,44,19.80
2020,05,11,09,45,19.90
2020,05,11,09,46,19.90
2020,05,11,09,47,20.00
2020,05,11,09,48,20.10
2020,05,11,09,49,20.20
2020,05,11,09,50,20.30
2020,05,11,09,51,20.40
2020,05,11,09,52,20.50
2020,05,11,09,53,20.60
2020,05,11,09,54,20.70
2020,05,11,09,55,20.70
2020,05,11,09,56,20.60
2020,05,11,09,57,20.60
2020,05,11,09,58,20.50
2020,05,11,09,59,20.50
2020,05,11,10,00,20.40
2020,05,11,10,01,20.40
2020,05,11,10,02,20.40
2020,05,11,10,03,20.40
2020,05,11,10,04,20.40
2020,05,11,10,05,20.50
2020,05,11,10,06,20.50
2020,05,11,10,07,20.60
2020,05,11,10,08,20.60
2020,05,11,10,09,20.70
2020,05,11,10,10,20.70
2020,05,11,10,11,20.50
2020,05,11,10,12,20.40
2020,05,11,10,13,20.30
2020,05,11,10,14,20.20
2020,05,11,10,15,20.20
2020,05,11,10,16,20.20
2020,05,11,10,17,20.20
2020,05,11,10,18,20.20
2020,05,11,10,19,20.20
2020,05,11,10,20,20.20
2020,05,11,10,21,20.30
2020,05,11,10,22,20.50
2020,05,11,10,23,20.50
2020,05,11,10,24,20.50
2020,05,11,10,25,20.60
2020,05,11,10,26,20.60
2020,05,11,10,27,20.50
2020,05,11,10,28,20.50
2020,05,11,10,29,20.50
2020,05,11,10,30,20.40
2020,05,11,10,31,20.30
2020,05,11,10,32,20.30
2020,05,11,10,33,20.20
2020,05,11,10,34,20.10
2020,05,11,10,35,20.10
2020,05,11,10,36,20.10
2020,05,11,10,37,20.10
2020,05,11,10,38,20.20
2020,05,11,10,39,20.10
2020,05,11,10,40,20.00
2020,05,11,10,41,19.90
2020,05,11,10,42,19.70
2020,05,11,10,43,19.60
2020,05,11,10,44,19.40
2020,05,11,10,45,19.30
2020,05,11,10,46,19.40
2020,05,11,10,47,19.40
2020,05,11,10,48,19.50
2020,05,11,10,49,19.60
2020,05,11,10,50,19.70
2020,05,11,10,51,19.60
2020,05,11,10,52,19.50
2020,05,11,10,53,19.40
2020,05,11,10,54,19.30
2020,05,11,10,55,19.30
2020,05,11,10,56,19.10
2020,05,11,10,57,19.10
2020,05,11,10,58,19.10
2020,05,11,10,59,19.00
2020,05,11,11,00,18.90
2020,05,11,11,01,18.90
2020,05,11,11,02,19.10
2020,05,11,11,03,19.10
2020,05,11,11,04,19.20
2020,05,11,11,05,19.30
2020,05,11,11,06,19.30
2020,05,11,11,07,19.40
2020,05,11,11,08,19.50
2020,05,11,11,09,19.60
2020,05,11,11,10,19.70
2020,05,11,11,11,19.90
2020,05,11,11,12,20.00
2020,05,11,11,13,20.10
2020,05,11,11,14,20.20
2020,05,11,11,15,20.20
2020,05,11,11,16,20.20
2020,05,11,11,17,20.20
2020,05,11,11,18,20.20
2020,05,11,11,19,20.20
2020,05,11,11,20,20.20
2020,05,11,11,21,20.20
2020,05,11,11,22,20.20
2020,05,11,11,23,20.20
2020,05,11,11,24,20.20
2020,05,11,11,25,20.20
2020,05,11,11,26,20.20
2020,05,11,11,27,20.10
2020,05,11,11,28,20.00
2020,05,11,11,29,19.90
2020,05,11,11,30,19.90
2020,05,11,11,31,19.80
2020,05,11,11,32,19.70
2020,05,11,11,33,19.60
2020,05,11,11,34,19.60
2020,05,11,11,35,19.60
2020,05,11,11,36,19.60
2020,05,11,11,37,19.70
2020,05,11,11,38,19.80
2020,05,11,11,39,19.80
2020,05,11,11,40,19.80
2020,05,11,11,41,19.90
2020,05,11,11,42,19.90
2020,05,11,11,43,19.90
2020,05,11,11,44,19.90
2020,05,11,11,45,19.90
2020,05,11,11,46,19.90
2020,05,11,11,47,19.90
2020,05,11,11,48,19.90
2020,05,11,11,49,19.90
2020,05,11,11,50,19.90
2020,05,11,11,51,19.90
2020,05,11,11,52,19.90
2020,05,11,11,53,20.00
2020,05,11,11,54,20.10
2020,05,11,11,55,20.10
2020,05,11,11,56,20.00
2020,05,11,11,57,19.90
2020,05,11,11,58,19.90
2020,05,11,11,59,19.80
2020,05,11,12,00,19.80
2020,05,11,12,01,19.90
2020,05,11,12,02,19.90
2020,05,11,12,03,19.90
2020,05,11,12,04,19.90
2020,05,11,12,05,19.70
2020,05,11,12,06,19.40
2020,05,11,12,07,19.20
2020,05,11,12,08,19.00
2020,05,11,12,09,18.90
2020,05,11,12,10,18.90
2020,05,11,12,11,18.90
2020,05,11,12,12,18.90
2020,05,11,12,13,18.80
2020,05,11,12,14,18.90
2020,05,11,12,15,18.90
2020,05,11,12,16,18.90
2020,05,11,12,17,18.90
2020,05,11,12,18,18.90
2020,05,11,12,19,19.10
2020,05,11,12,20,19.10
2020,05,11,12,21,19.20
2020,05,11,12,22,19.30
2020,05,11,12,23,19.40
2020,05,11,12,24,19.60
2020,05,11,12,25,19.80
2020,05,11,12,26,19.90
2020,05,11,12,27,20.00
2020,05,11,12,28,20.20
2020,05,11,12,29,20.20
2020,05,11,12,30,20.20
2020,05,11,12,31,20.30
2020,05,11,12,32,20.40
2020,05,11,12,33,20.40
2020,05,11,12,34,20.40
2020,05,11,12,35,20.50
2020,05,11,12,36,20.50
2020,05,11,12,37,20.70
2020,05,11,12,38,20.80
2020,05,11,12,39,20.90
2020,05,11,12,40,21.10
2020,05,11,12,41,21.20
2020,05,11,12,42,21.40
2020,05,11,12,43,21.40
2020,05,11,12,44,21.40
2020,05,11,12,45,21.30
2020,05,11,12,46,21.20
2020,05,11,12,47,21.10
2020,05,11,12,48,21.10
2020,05,11,12,49,21.00
2020,05,11,12,50,21.00
2020,05,11,12,51,21.00
2020,05,11,12,52,20.90
2020,05,11,12,53,20.80
2020,05,11,12,54,20.80
2020,05,11,12,55,20.80
2020,05,11,12,56,20.80
2020,05,11,12,57,20.70
2020,05,11,12,58,20.70
2020,05,11,12,59,20.70
2020,05,11,13,00,20.60
2020,05,11,13,01,20.60
2020,05,11,13,02,20.50
2020,05,11,13,03,20.30
2020,05,11,13,04,20.20
2020,05,11,13,05,20.10
2020,05,11,13,06,20.00
2020,05,11,13,07,20.10
2020,05,11,13,08,20.10
2020,05,11,13,09,20.10
2020,05,11,13,10,20.20
2020,05,11,13,11,20.20
2020,05,11,13,12,20.20
2020,05,11,13,13,20.20
2020,05,11,13,14,20.20
2020,05,11,13,15,20.30
2020,05,11,13,16,20.40
2020,05,11,13,17,20.50
2020,05,11,13,18,20.50
2020,05,11,13,19,20.50
2020,05,11,13,20,20.50
2020,05,11,13,21,20.50
2020,05,11,13,22,20.30
2020,05,11,13,23,20.10
2020,05,11,13,24,19.80
2020,05,11,13,25,19.60
2020,05,11,13,26,19.40
2020,05,11,13,27,19.10
2020,05,11,13,28,19.10
2020,05,11,13,29,19.10
2020,05,11,13,30,19.10
2020,05,11,13,31,19.10
2020,05,11,13,32,19.10
2020,05,11,13,33,19.10
2020,05,11,13,34,19.20
2020,05,11,13,35,19.30
2020,05,11,13,36,19.40
2020,05,11,13,37,19.50
2020,05,11,13,38,19.50
2020,05,11,13,39,19.50
2020,05,11,13,40,19.50
2020,05,11,13,41,19.60
2020,05,11,13,42,19.60
2020,05,11,13,43,19.60
2020,05,11,13,44,19.60
2020,05,11,13,45,19.60
2020,05,11,13,46,19.60
2020,05,11,13,47,19.50
2020,05,11,13,48,19.50
2020,05,11,13,49,19.40
2020,05,11,13,50,19.40
2020,05,11,13,51,19.30
2020,05,11,13,52,19.20
2020,05,11,13,53,19.10
2020,05,11,13,54,19.10
2020,05,11,13,55,19.10
2020,05,11,13,56,19.10
2020,05,11,13,57,19.10
2020,05,11,13,58,19.20
2020,05,11,13,59,19.20
2020,05,11,14,00,19.10
2020,05,11,14,01,19.10
2020,05,11,14,02,19.10
2020,05,11,14,03,19.10
2020,05,11,14,04,19.10
2020,05,11,14,05,19.10
2020,05,11,14,06,19.10
2020,05,11,14,07,19.20
2020,05,11,14,08,19.20
2020,05,11,14,09,19.20
2020,05,11,14,10,19.20
2020,05,11,14,11,19.30
2020,05,11,14,12,19.30
2020,05,11,14,13,19.30
2020,05,11,14,14,19.40
2020,05,11,14,15,19.40
2020,05,11,14,16,19.30
2020,05,11,14,17,19.30
2020,05,11,14,18,19.30
2020,05,11,14,19,19.30
2020,05,11,14,20,19.40
2020,05,11,14,21,19.40
2020,05,11,14,22,19.40
2020,05,11,14,23,19.50
2020,05,11,14,24,19.40
2020,05,11,14,25,19.30
2020,05,11,14,26,19.20
2020,05,11,14,27,19.10
2020,05,11,14,28,19.10
2020,05,11,14,29,19.10
2020,05,11,14,30,19.20
2020,05,11,14,31,19.30
2020,05,11,14,32,19.40
2020,05,11,14,33,19.50
2020,05,11,14,34,19.60
2020,05,11,14,35,19.60
2020,05,11,14,36,19.80
2020,05,11,14,37,19.80
2020,05,11,14,38,19.90
2020,05,11,14,39,19.90
2020,05,11,14,40,19.90
2020,05,11,14,41,19.90
2020,05,11,14,42,19.90
2020,05,11,14,43,20.00
2020,05,11,14,44,20.00
2020,05,11,14,45,20.10
2020,05,11,14,46,20.10
2020,05,11,14,47,20.10
2020,05,11,14,48,19.90
2020,05,11,14,49,19.90
2020,05,11,14,50,19.90
2020,05,11,14,51,19.90
2020,05,11,14,52,19.90
2020,05,11,14,53,19.90
2020,05,11,14,54,19.90
2020,05,11,14,55,19.90
2020,05,11,14,56,19.90
2020,05,11,14,57,19.90
2020,05,11,14,58,19.90
2020,05,11,14,59,19.90
2020,05,11,15,00,19.90
2020,05,11,15,01,19.80
2020,05,11,15,02,19.80
2020,05,11,15,03,19.70
2020,05,11,15,04,19.70
2020,05,11,15,05,19.70
2020,05,11,15,06,19.70
2020,05,11,15,07,19.60
2020,05,11,15,08,19.60
2020,05,11,15,09,19.70
2020,05,11,15,10,19.70
2020,05,11,15,11,19.70
2020,05,11,15,12,19.70
2020,05,11,15,13,19.70
2020,05,11,15,14,19.70
2020,05,11,15,15,19.70
2020,05,11,15,16,19.70
2020,05,11,15,17,19.70
2020,05,11,15,18,19.70
2020,05,11,15,19,19.60
2020,05,11,15,20,19.60
2020,05,11,15,21,19.60
2020,05,11,15,22,19.60
2020,05,11,15,23,19.60
2020,05,11,15,24,19.60
2020,05,11,15,25,19.60
2020,05,11,15,26,19.60
2020,05,11,15,27,19.70
2020,05,11,15,28,19.80
2020,05,11,15,29,19.80
2020,05,11,15,30,19.90
2020,05,11,15,31,19.90
2020,05,11,15,32,20.00
2020,05,11,15,33,20.10
2020,05,11,15,34,20.10
2020,05,11,15,35,20.20
2020,05,11,15,36,20.20
2020,05,11,15,37,20.20
2020,05,11,15,38,20.20
2020,05,11,15,39,20.20
2020,05,11,15,40,20.20
2020,05,11,15,41,20.20
2020,05,11,15,42,20.10
2020,05,11,15,43,20.00
2020,05,11,15,44,19.90
2020,05,11,15,45,19.90
2020,05,11,15,46,19.90
2020,05,11,15,47,19.80
2020,05,11,15,48,19.70
2020,05,11,15,49,19.70
2020,05,11,15,50,19.60
2020,05,11,15,51,19.60
2020,05,11,15,52,19.60
2020,05,11,15,53,19.60
2020,05,11,15,54,19.50
2020,05,11,15,55,19.50
2020,05,11,15,56,19.50
2020,05,11,15,57,19.50
2020,05,11,15,58,19.50
2020,05,11,15,59,19.50
2020,05,11,16,00,19.50
2020,05,11,16,01,19.50
2020,05,11,16,02,19.60
2020,05,11,16,03,19.60
2020,05,11,16,04,19.60
2020,05,11,16,05,19.60
2020,05,11,16,06,19.60
2020,05,11,16,07,19.70
2020,05,11,16,08,19.70
2020,05,11,16,09,19.70
2020,05,11,16,10,19.80
2020,05,11,16,11,19.80
2020,05,11,16,12,19.80
2020,05,11,16,13,19.90
2020,05,11,16,14,19.90
2020,05,11,16,15,19.90
2020,05,11,16,16,19.90
2020,05,11,16,17,19.90
2020,05,11,16,18,19.90
2020,05,11,16,19,19.90
2020,05,11,16,20,19.90
2020,05,11,16,21,19.90
2020,05,11,16,22,19.90
2020,05,11,16,23,19.90
2020,05,11,16,24,20.10
2020,05,11,16,25,20.10
2020,05,11,16,26,20.10
2020,05,11,16,27,20.10
2020,05,11,16,28,20.10
2020,05,11,16,29,20.10
2020,05,11,16,30,20.20
2020,05,11,16,31,20.20
2020,05,11,16,32,20.20
2020,05,11,16,33,20.20
2020,05,11,16,34,20.20
2020,05,11,16,35,20.20
2020,05,11,16,36,20.20
2020,05,11,16,37,20.20
2020,05,11,16,38,20.10
2020,05,11,16,39,20.10
2020,05,11,16,40,20.20
2020,05,11,16,41,20.10
2020,05,11,16,42,20.10
2020,05,11,16,43,20.10
2020,05,11,16,44,20.20
2020,05,11,16,45,20.20
2020,05,11,16,46,20.20
2020,05,11,16,47,20.20
2020,05,11,16,48,20.10
2020,05,11,16,49,20.10
2020,05,11,16,50,20.10
2020,05,11,16,51,20.00
2020,05,11,16,52,19.90
2020,05,11,16,53,19.90
2020,05,11,16,54,19.90
2020,05,11,16,55,19.80
2020,05,11,16,56,19.70
2020,05,11,16,57,19.60
2020,05,11,16,58,19.50
2020,05,11,16,59,19.40
2020,05,11,17,00,19.40
2020,05,11,17,01,19.30
2020,05,11,17,02,19.20
2020,05,11,17,03,19.10
2020,05,11,17,04,19.10
2020,05,11,17,05,19.10
2020,05,11,17,06,19.10
2020,05,11,17,07,18.90
2020,05,11,17,08,18.90
2020,05,11,17,09,18.90
2020,05,11,17,10,18.80
2020,05,11,17,11,18.80
2020,05,11,17,12,18.70
2020,05,11,17,13,18.60
2020,05,11,17,14,18.60
2020,05,11,17,15,18.50
2020,05,11,17,16,18.50
2020,05,11,17,17,18.40
2020,05,11,17,18,18.40
2020,05,11,17,19,18.30
2020,05,11,17,20,18.20
2020,05,11,17,21,18.20
2020,05,11,17,22,18.20
2020,05,11,17,23,18.20
2020,05,11,17,24,18.10
2020,05,11,17,25,18.00
2020,05,11,17,26,17.90
2020,05,11,17,27,17.90
2020,05,11,17,28,17.80
2020,05,11,17,29,17.80
2020,05,11,17,30,17.70
2020,05,11,17,31,17.70
2020,05,11,17,32,17.70
2020,05,11,17,33,17.60
2020,05,11,17,34,17.60
2020,05,11,17,35,17.50
2020,05,11,17,36,17.50
2020,05,11,17,37,17.50
2020,05,11,17,38,17.60
2020,05,11,17,39,17.60
2020,05,11,17,40,17.60
2020,05,11,17,41,17.60
2020,05,11,17,42,17.60
2020,05,11,17,43,17.60
2020,05,11,17,44,17.60
2020,05,11,17,45,17.60
2020,05,11,17,46,17.70
2020,05,11,17,47,17.70
2020,05,11,17,48,17.70
2020,05,11,17,49,17.70
2020,05,11,17,50,17.70
2020,05,11,17,51,17.70
2020,05,11,17,52,17.70
2020,05,11,17,53,17.70
2020,05,11,17,54,17.70
2020,05,11,17,55,17.70
2020,05,11,17,56,17.70
2020,05,11,17,57,17.70
2020,05,11,17,58,17.70
2020,05,11,17,59,17.70
2020,05,11,18,00,17.70
2020,05,11,18,01,17.70
2020,05,11,18,02,17.70
2020,05,11,18,03,17.70
2020,05,11,18,04,17.70
2020,05,11,18,05,17.70
2020,05,11,18,06,17.70
2020,05,11,18,07,17.70
2020,05,11,18,08,17.70
2020,05,11,18,09,17.70
2020,05,11,18,10,17.70
2020,05,11,18,11,17.70
2020,05,11,18,12,17.70
2020,05,11,18,13,17.70
2020,05,11,18,14,17.70
2020,05,11,18,15,17.60
2020,05,11,18,16,17.60
2020,05,11,18,17,17.60
2020,05,11,18,18,17.50
2020,05,11,18,19,17.50
2020,05,11,18,20,17.50
2020,05,11,18,21,17.50
2020,05,11,18,22,17.50
2020,05,11,18,23,17.50
2020,05,11,18,24,17.40
2020,05,11,18,25,17.40
2020,05,11,18,26,17.40
2020,05,11,18,27,17.40
2020,05,11,18,28,17.40
2020,05,11,18,29,17.30
2020,05,11,18,30,17.30
2020,05,11,18,31,17.30
2020,05,11,18,32,17.30
2020,05,11,18,33,17.20
2020,05,11,18,34,17.20
2020,05,11,18,35,17.20
2020,05,11,18,36,17.10
2020,05,11,18,37,17.10
2020,05,11,18,38,17.00
2020,05,11,18,39,17.00
2020,05,11,18,40,17.00
2020,05,11,18,41,16.90
2020,05,11,18,42,16.90
2020,05,11,18,43,16.80
2020,05,11,18,44,16.80
2020,05,11,18,45,16.70
2020,05,11,18,46,16.70
2020,05,11,18,47,16.70
2020,05,11,18,48,16.60
2020,05,11,18,49,16.60
2020,05,11,18,50,16.60
2020,05,11,18,51,16.50
2020,05,11,18,52,16.40
2020,05,11,18,53,16.40
2020,05,11,18,54,16.40
2020,05,11,18,55,16.40
2020,05,11,18,56,16.40
2020,05,11,18,57,16.40
2020,05,11,18,58,16.30
2020,05,11,18,59,16.30
2020,05,11,19,00,16.30
2020,05,11,19,01,16.20
2020,05,11,19,02,16.20
2020,05,11,19,03,16.20
2020,05,11,19,04,16.20
2020,05,11,19,05,16.20
2020,05,11,19,06,16.20
2020,05,11,19,07,16.20
2020,05,11,19,08,16.20
2020,05,11,19,09,16.20
2020,05,11,19,10,16.20
2020,05,11,19,11,16.20
2020,05,11,19,12,16.20
2020,05,11,19,13,16.20
2020,05,11,19,14,16.20
2020,05,11,19,15,16.10
2020,05,11,19,16,16.10
2020,05,11,19,17,16.10
2020,05,11,19,18,16.10
2020,05,11,19,19,16.10
2020,05,11,19,20,15.90
2020,05,11,19,21,15.90
2020,05,11,19,22,15.80
2020,05,11,19,23,15.80
2020,05,11,19,24,15.80
2020,05,11,19,25,15.70
2020,05,11,19,26,15.70
2020,05,11,19,27,15.70
2020,05,11,19,28,15.60
2020,05,11,19,29,15.60
2020,05,11,19,30,15.60
2020,05,11,19,31,15.60
2020,05,11,19,32,15.60
2020,05,11,19,33,15.50
2020,05,11,19,34,15.50
2020,05,11,19,35,15.50
2020,05,11,19,36,15.50
2020,05,11,19,37,15.50
2020,05,11,19,38,15.50
2020,05,11,19,39,15.50
2020,05,11,19,40,15.50
2020,05,11,19,41,15.60
2020,05,11,19,42,15.60
2020,05,11,19,43,15.60
2020,05,11,19,44,15.60
2020,05,11,19,45,15.60
2020,05,11,19,46,15.60
2020,05,11,19,47,15.60
2020,05,11,19,48,15.60
2020,05,11,19,49,15.60
2020,05,11,19,50,15.60
2020,05,11,19,51,15.60
2020,05,11,19,52,15.60
2020,05,11,19,53,15.60
